Regional Weather Roundup
Issued by NWS Jackson, KY

Home | Current Version | Previous Version | Graphics & Text | Print | Product List | Glossary On
Versions: 1 2 3 4 5 6 7 8 9 10 11 12 13 14 15 16 17 18 19 20 21 22 23 24 25 26 27 28 29
000
ASUS43 KJKL 080010
RWRJKL

EAST KENTUCKY HOURLY WEATHER ROUNDUP
NATIONAL WEATHER SERVICE JACKSON KY
700 PM EST WED DEC 07 2016

NOTE: "FAIR" INDICATES FEW OR NO CLOUDS BELOW 12,000 FEET WITH
NO SIGNIFICANT WEATHER AND/OR OBSTRUCTIONS TO VISIBILITY.

* THESE REPORTS ARE NOT UNDER NWS QUALITY CONTROL AND MAY NOT
  REPORT WEATHER SUCH AS PRECIPITATION AND FOG.

KYZ079-080-083-085-087-088-110-112-115-119-120-080100
...EASTERN KENTUCKY...

CITY           SKY/WX    TMP DP  RH WIND       PRES   REMARKS
JACKSON        PTCLDY    40  28  62 CALM      30.11R
6HR MIN TEMP:  40; 6HR MAX TEMP:  48;

LONDON         PTCLDY    37  29  72 CALM      30.11S
6HR MIN TEMP:  37; 6HR MAX TEMP:  47;

SOMERSET*      CLOUDY    37  27  65 CALM      30.14S
MONTICELLO*    CLOUDY    33  28  81 CALM      30.15R
6HR MIN TEMP:  32; 6HR MAX TEMP:  46;

WILLIAMSBURG*  PTCLDY    37  32  81 CALM      30.12S
MIDDLESBORO*   PTCLDY    41  32  71 CALM      30.12S
6HR MIN TEMP:  41; 6HR MAX TEMP:  48;

HARLAN APT*    MOCLDY    37  30  75 CALM      30.10S
PIKE CO APT*     N/A     39  28  65 CALM      30.10S
MOREHEAD APT*  CLOUDY    39  25  56 NW3       30.14S
ASHLAND*       CLOUDY    43  30  61 N3        30.12R
$$

KYZ035-036-041-042-044-050-067-078-099-080100
...CENTRAL KENTUCKY...

CITY           SKY/WX    TMP DP  RH WIND       PRES   REMARKS
MT STERLING*   CLOUDY    37  27  65 N3        30.15S
FLEMING/MASON* CLOUDY    37  24  57 NW5       30.15S WCI  34
DANVILLE*      CLOUDY    34  27  75 NW5       30.15S WCI  30
LEXINGTON      CLOUDY    38  25  59 NW3       30.13F
6HR MIN TEMP:  38; 6HR MAX TEMP:  44;

FRANKFORT      CLOUDY    38  23  55 NW6       30.15R WCI  33
6HR MIN TEMP:  37; 6HR MAX TEMP:  44;

LOUISVILLE     MOCLDY    37  19  48 W7        30.19R WCI  32
6HR MIN TEMP:  37; 6HR MAX TEMP:  44;

LEBANON*       MOCLDY    36  27  69 CALM      30.17R
GLASGOW*       PTCLDY    37  24  61 N5        30.17R WCI  33
BOWLING GREEN  CLOUDY    42  26  53 NW8       30.19R
6HR MIN TEMP:  42; 6HR MAX TEMP:  50; 6HR PCP: TRACE;

$$

KYZ091>093-OHZ055-061-077-WVZ005-015-034-035-042-080100
...SOUTHERN OHIO/WEST VIRGINIA...

CITY           SKY/WX    TMP DP  RH WIND       PRES   REMARKS
COVINGTON      CLOUDY    35  23  61 SW5       30.14S WCI  31
COLUMBUS       CLOUDY    36  25  64 SW6       30.11R WCI  31
DAYTON         CLOUDY    32  24  72 W8        30.12R WCI  25
WILMINGTON     CLOUDY    34  24  67 W5        30.11F WCI  30
HUNTINGTON     CLOUDY    43  23  45 N3        30.12R
CHARLESTON     PTCLDY    38  27  64 CALM      30.10R
PINEVILLE*       N/A     32  28  86 MISG      30.13R
BECKLEY        CLEAR     33  21  61 CALM      30.06R
BLUEFIELD      CLEAR     34  28  79 W6        30.06R WCI  29
LOGAN CO APT*    N/A     39  27  60 CALM      30.09R
$$

VAZ002-007-008-TNZ017-027-036-066-071-080100
...SOUTHWEST VIRGINIA/EAST TENNESSEE...

CITY           SKY/WX    TMP DP  RH WIND       PRES   REMARKS
WISE*          MOCLDY    36  27  69 CALM      30.08S
JONESVILLE*      N/A     39  36  87 CALM      30.11R
ABINGDON*      PTCLDY    43  34  68 CALM      30.06R
BRISTOL        CLOUDY    44  32  62 N3        30.06S
MORRISTOWN*    CLEAR     46  37  71 NW6       30.06R
SEVIERVILLE*   CLOUDY    46  39  76 NW8       30.07R
KNOXVILLE      CLOUDY    47  37  68 NW8       30.08R
OAK RIDGE      MOCLDY    44  35  70 E5        30.11R
CROSSVILLE     PTCLDY    38  33  82 CALM      30.09F
NASHVILLE      CLOUDY    43  28  55 N6        30.16S
$$

...KEY TO REMARKS...
VSB - VISIBILITY IN MILES
WCI - WIND CHILL INDEX
HX  - HEAT INDEX

$$




USA.gov is the U.S. government's official web portal to all federal, state and local government web resources and services.